Regional Weather Roundup
Issued by NWS

Home | Current Version | Previous Version | Text Only | Print | Product List | Glossary On
Versions: 1 2 3 4 5 6 7 8 9 10 11 12 13 14 15 16 17 18 19 20 21 22 23 24 25 26 27 28 29 30 31 32 33 34 35 36 37 38 39 40 41 42 43 44 45 46 47 48 49 50
000
ASUS43 KTOP 200059
RWRKS

WEATHER ROUNDUP FOR KANSAS
NATIONAL WEATHER SERVICE GOODLAND KS
800 PM CDT SUN OCT 19 2014

NOTE:  "FAIR" INDICATES FEW OR NO CLOUDS BELOW 12,000 FEET WITH NO
SIGNIFICANT WEATHER AND/OR OBSTRUCTIONS TO VISIBILITY.

KSZ001>006-013>018-027>032-041>047-200200-
NORTHWEST KANSAS

CITY           SKY/WX    TMP DP  RH WIND       PRES   REMARKS
GOODLAND       CLEAR     57  42  57 E6        30.06R
HAYS           CLEAR     61  48  63 E8        29.99R
HILL CITY      CLEAR     57  46  66 N6        30.00R
RUSSELL        CLEAR     59  51  75 SE10      29.98R
$$

KSZ061>065-074>080-084>089-200200-
SOUTHWEST KANSAS

CITY           SKY/WX    TMP DP  RH WIND       PRES   REMARKS
DODGE CITY     CLEAR     64  49  57 N6        29.98R
ELKHART          N/A     66  46  48 NE2         N/A
GARDEN CITY    CLEAR     59  48  67 N7        29.99R
GREAT BEND     CLEAR     63  52  67 E6        29.99R
LIBERAL        CLEAR     68  50  52 W3        30.01R
$$

KSZ066>073-081>083-090>101-200200-
SOUTHEAST KANSAS

CITY           SKY/WX    TMP DP  RH WIND       PRES   REMARKS
CHANUTE        CLOUDY    62  54  74 SE5       30.05S
COFFEYVILLE    RAIN      62  54  74 S7        30.04S
HUTCHINSON     CLEAR     62  52  69 SE8       30.00S
NEWTON         MOCLDY    63  50  63 SE7       30.03S
PARSONS        CLOUDY    63  54  72 SE3       30.06S
WICHITA INTL   PTCLDY    66  54  65 SE9       30.01R
WICHITA JABRA  CLOUDY    64  53  67 SE6       30.02R
WINFIELD       CLOUDY    66  55  67 SE5       30.03R
$$

KSZ007>012-019>026-033>040-048>060-102>105-200200-
NORTHEAST KANSAS

CITY           SKY/WX    TMP DP  RH WIND       PRES   REMARKS
CONCORDIA      CLEAR     60  51  72 S9        29.99R
LAWRENCE       CLEAR     57  46  66 CALM      30.01S
MANHATTAN      PTCLDY    60  50  69 SW6       30.00R
OLATHE IND     CLEAR     56  48  74 S6        30.02F
OLATHE EXE     CLEAR     58  50  75 S5        30.01F
SALINA         CLEAR     59  51  75 CALM      30.00S
TOPEKA BILLARD PTCLDY    64  49  57 S5        30.00S
TOPEKA FORBES  CLEAR     60  48  64 S7        30.00S
$$



USA.gov is the U.S. government's official web portal to all federal, state and local government web resources and services.